| time (UTC) | temp F | wind direction | speed knots | gust knots | rain 1hr in | rain 24hr in | rain mn in | humidity % | barometer mb |
| 20260506091106 | 63 | 337 | 2.6 | 3.5 | 0.00 | 0.00 | 0.00 | 31 | 1009.9 |
| 20260506090105 | 64 | 22 | 3.5 | 6.1 | 0.00 | 0.00 | 0.00 | 27 | 1009.9 |
| 20260506085105 | 64 | 90 | 4.3 | 3.5 | 0.00 | 0.00 | 0.00 | 31 | 1009.9 |
| 20260506084107 | 64 | 45 | 2.6 | 2.6 | 0.00 | 0.00 | 0.00 | 31 | 1009.9 |
| 20260506083106 | 63 | 0 | 4.3 | 3.5 | 0.00 | 0.00 | 0.00 | 34 | 1009.9 |
| 20260506082106 | 61 | 22 | 2.6 | 3.5 | 0.00 | 0.00 | 0.00 | 36 | 1009.9 |
| 20260506081106 | 60 | 0 | 3.5 | 2.6 | 0.00 | 0.00 | 0.00 | 36 | 1009.9 |
| 20260506080107 | 61 | 0 | 4.3 | 3.5 | 0.00 | 0.00 | 0.00 | 36 | 1009.9 |
| 20260506073105 | 60 | 0 | 3.5 | 4.3 | 0.00 | 0.00 | 0.00 | 45 | 1010.9 |
| 20260506072105 | 59 | 0 | 1.7 | 0.0 | 0.00 | 0.00 | 0.00 | 49 | 1010.9 |
| 20260506071107 | 58 | 0 | 2.6 | 3.5 | 0.00 | 0.00 | 0.00 | 54 | 1010.9 |
| 20260506070106 | 57 | 337 | 3.5 | 3.5 | 0.00 | 0.00 | 0.00 | 56 | 1010.9 |
| 20260506062106 | 55 | 225 | 0.0 | 0.0 | 0.00 | 0.00 | 0.00 | 58 | 1010.9 |
| 20260506061106 | 55 | 225 | 1.7 | 2.6 | 0.00 | 0.00 | 0.00 | 58 | 1010.9 |
| 20260506060107 | 54 | 225 | 0.0 | 0.0 | 0.00 | 0.00 | 0.00 | 60 | 1010.9 |
| 20260506051106 | 50 | 180 | 0.0 | 0.0 | 0.00 | 0.00 | 0.00 | 60 | 1010.9 |
| 20260506050106 | 50 | 180 | 0.0 | 2.6 | 0.00 | 0.00 | 0.00 | 60 | 1010.9 |
| 20260506045106 | 49 | 180 | 0.9 | 2.6 | 0.00 | 0.00 | 0.00 | 59 | 1010.9 |
| 20260506044105 | 49 | 180 | 0.0 | 0.0 | 0.00 | 0.00 | 0.00 | 59 | 1010.9 |
| 20260506043106 | 49 | 157 | 3.5 | 3.5 | 0.00 | 0.00 | 0.00 | 59 | 1010.9 |
| 20260506042106 | 49 | 180 | 2.6 | 3.5 | 0.00 | 0.00 | 0.00 | 59 | 1010.9 |
| 20260506041106 | 49 | 180 | 0.0 | 0.0 | 0.00 | 0.00 | 0.00 | 59 | 1011.9 |
| 20260506040105 | 49 | 180 | 0.9 | 5.2 | 0.00 | 0.00 | 0.00 | 58 | 1011.9 |
| 20260506035105 | 49 | 180 | 0.9 | 0.0 | 0.00 | 0.00 | 0.00 | 58 | 1011.9 |
| 20260506034105 | 49 | 180 | 3.5 | 3.5 | 0.00 | 0.00 | 0.00 | 58 | 1011.9 |
| 20260506033106 | 49 | 247 | 2.6 | 2.6 | 0.00 | 0.00 | 0.00 | 57 | 1011.9 |
| 20260506032106 | 49 | 247 | 0.0 | 0.0 | 0.00 | 0.00 | 0.00 | 57 | 1011.9 |
| 20260506031106 | 49 | 247 | 0.0 | 0.0 | 0.00 | 0.00 | 0.00 | 56 | 1011.9 |
| 20260506030105 | 49 | 180 | 3.5 | 3.5 | 0.00 | 0.00 | 0.00 | 55 | 1011.9 |
| 20260506025105 | 50 | 292 | 0.0 | 0.0 | 0.00 | 0.00 | 0.00 | 54 | 1011.9 |
| 20260506024106 | 50 | 292 | 0.9 | 0.0 | 0.00 | 0.00 | 0.00 | 53 | 1011.9 |
| 20260506023105 | 51 | 247 | 0.0 | 0.0 | 0.00 | 0.00 | 0.00 | 51 | 1011.9 |
| 20260506022105 | 52 | 247 | 0.0 | 0.0 | 0.00 | 0.00 | 0.00 | 53 | 1011.9 |
| 20260506021106 | 52 | 247 | 2.6 | 2.6 | 0.00 | 0.00 | 0.00 | 53 | 1011.9 |
| 20260506020106 | 52 | 247 | 0.0 | 0.0 | 0.00 | 0.00 | 0.00 | 53 | 1011.9 |
| 20260506015106 | 52 | 270 | 3.5 | 2.6 | 0.00 | 0.00 | 0.00 | 53 | 1011.9 |
| 20260506014105 | 52 | 157 | 0.0 | 0.0 | 0.00 | 0.00 | 0.00 | 50 | 1011.9 |
| 20260506013106 | 53 | 157 | 0.0 | 0.0 | 0.00 | 0.00 | 0.00 | 50 | 1011.9 |
| 20260506012106 | 53 | 270 | 1.7 | 2.6 | 0.00 | 0.00 | 0.00 | 50 | 1011.9 |
| 20260506011106 | 53 | 247 | 1.7 | 3.5 | 0.00 | 0.00 | 0.00 | 48 | 1011.9 |
| 20260506010105 | 54 | 247 | 3.5 | 2.6 | 0.00 | 0.00 | 0.00 | 48 | 1011.9 |
| 20260506005105 | 54 | 180 | 5.2 | 4.3 | 0.00 | 0.00 | 0.00 | 49 | 1011.9 |
| 20260506004106 | 54 | 157 | 3.5 | 3.5 | 0.00 | 0.00 | 0.00 | 48 | 1011.9 |
| 20260506003106 | 54 | 180 | 4.3 | 4.3 | 0.00 | 0.00 | 0.00 | 48 | 1012.9 |
| 20260506002106 | 54 | 202 | 1.7 | 3.5 | 0.00 | 0.00 | 0.00 | 48 | 1012.9 |
| 20260506001105 | 54 | 247 | 0.0 | 0.0 | 0.00 | 0.00 | 0.00 | 48 | 1012.9 |
| 20260506000106 | 54 | 247 | 0.0 | 0.0 | 0.00 | 0.00 | 0.00 | 47 | 1012.9 |
| 20260505235106 | 55 | 247 | 0.0 | 0.0 | 0.00 | 0.00 | 0.00 | 47 | 1012.9 |
| 20260505234105 | 56 | 270 | 2.6 | 0.0 | 0.00 | 0.00 | 0.00 | 47 | 1012.9 |
| 20260505233107 | 56 | 270 | 3.5 | 3.5 | 0.00 | 0.00 | 0.00 | 46 | 1012.9 |
| 20260505232107 | 56 | 315 | 4.3 | 3.5 | 0.00 | 0.00 | 0.00 | 46 | 1012.9 |
| 20260505231106 | 57 | 315 | 3.5 | 3.5 | 0.00 | 0.00 | 0.00 | 42 | 1012.9 |
| 20260505230105 | 57 | 292 | 3.5 | 3.5 | 0.00 | 0.00 | 0.00 | 41 | 1012.9 |
| 20260505225105 | 57 | 270 | 5.2 | 7.8 | 0.00 | 0.00 | 0.00 | 43 | 1012.9 |
| 20260505224106 | 57 | 292 | 5.2 | 5.2 | 0.00 | 0.00 | 0.00 | 46 | 1011.9 |
| 20260505223106 | 56 | 225 | 3.5 | 4.3 | 0.00 | 0.00 | 0.00 | 53 | 1011.9 |
| 20260505222105 | 56 | 202 | 3.5 | 3.5 | 0.00 | 0.00 | 0.00 | 54 | 1011.9 |
| 20260505221107 | 56 | 180 | 0.9 | 3.5 | 0.00 | 0.00 | 0.00 | 55 | 1011.9 |
| 20260505220105 | 56 | 180 | 2.6 | 0.0 | 0.00 | 0.00 | 0.00 | 56 | 1011.9 |
| 20260505215105 | 56 | 270 | 2.6 | 0.0 | 0.00 | 0.00 | 0.00 | 58 | 1011.9 |
| 20260505214107 | 55 | 157 | 3.5 | 3.5 | 0.00 | 0.00 | 0.00 | 59 | 1011.9 |
| 20260505213106 | 54 | 247 | 3.5 | 3.5 | 0.00 | 0.00 | 0.00 | 60 | 1010.9 |
| 20260505212106 | 52 | 247 | 2.6 | 2.6 | 0.00 | 0.00 | 0.00 | 58 | 1010.9 |
| 20260505211105 | 51 | 315 | 1.7 | 3.5 | 0.00 | 0.00 | 0.00 | 57 | 1010.9 |
| 20260505210105 | 52 | 45 | 0.9 | 0.0 | 0.00 | 0.00 | 0.00 | 54 | 1010.9 |
| 20260505205105 | 52 | 45 | 0.0 | 0.0 | 0.00 | 0.00 | 0.00 | 53 | 1010.9 |
| 20260505204106 | 52 | 45 | 0.9 | 0.0 | 0.00 | 0.00 | 0.00 | 53 | 1010.9 |
| 20260505203105 | 52 | 292 | 2.6 | 3.5 | 0.00 | 0.00 | 0.00 | 53 | 1009.9 |
| 20260505202105 | 52 | 292 | 0.9 | 0.0 | 0.00 | 0.00 | 0.00 | 49 | 1009.9 |
| 20260505201106 | 53 | 180 | 0.0 | 0.0 | 0.00 | 0.00 | 0.00 | 49 | 1009.9 |
| 20260505200105 | 54 | 180 | 2.6 | 2.6 | 0.00 | 0.00 | 0.00 | 50 | 1009.9 |
| 20260505195105 | 54 | 180 | 0.0 | 0.0 | 0.00 | 0.00 | 0.00 | 49 | 1009.9 |
| 20260505194107 | 55 | 180 | 0.0 | 0.0 | 0.00 | 0.00 | 0.00 | 48 | 1009.9 |
| 20260505193106 | 56 | 180 | 0.0 | 2.6 | 0.00 | 0.00 | 0.00 | 48 | 1009.9 |
| 20260505192106 | 56 | 180 | 3.5 | 2.6 | 0.00 | 0.00 | 0.00 | 48 | 1009.9 |
| 20260505191105 | 56 | 202 | 1.7 | 2.6 | 0.00 | 0.00 | 0.00 | 48 | 1009.9 |
| 20260505190107 | 56 | 202 | 2.6 | 2.6 | 0.00 | 0.00 | 0.00 | 47 | 1009.9 |
| 20260505185107 | 57 | 202 | 0.0 | 0.0 | 0.00 | 0.00 | 0.00 | 47 | 1009.9 |
| 20260505184106 | 58 | 202 | 0.0 | 0.0 | 0.00 | 0.00 | 0.00 | 47 | 1008.9 |
| 20260505183105 | 58 | 202 | 0.0 | 0.0 | 0.00 | 0.00 | 0.00 | 47 | 1008.9 |
| 20260505182105 | 59 | 202 | 2.6 | 2.6 | 0.00 | 0.00 | 0.00 | 47 | 1008.9 |
| 20260505181106 | 59 | 202 | 0.0 | 0.0 | 0.00 | 0.00 | 0.00 | 48 | 1008.9 |
| 20260505180106 | 59 | 202 | 2.6 | 2.6 | 0.00 | 0.00 | 0.00 | 49 | 1008.9 |
| 20260505175106 | 59 | 225 | 2.6 | 3.5 | 0.00 | 0.00 | 0.00 | 51 | 1008.9 |
| 20260505174105 | 58 | 337 | 4.3 | 3.5 | 0.00 | 0.00 | 0.00 | 53 | 1008.9 |
| 20260505173107 | 58 | 337 | 5.2 | 3.5 | 0.00 | 0.00 | 0.00 | 51 | 1008.9 |
| 20260505172107 | 59 | 292 | 6.1 | 4.3 | 0.00 | 0.00 | 0.00 | 49 | 1008.9 |
| 20260505171106 | 59 | 337 | 6.1 | 4.3 | 0.00 | 0.00 | 0.00 | 46 | 1008.9 |
| 20260505170107 | 60 | 0 | 7.0 | 7.0 | 0.00 | 0.00 | 0.00 | 41 | 1008.9 |
| 20260505165106 | 60 | 292 | 10.4 | 7.0 | 0.00 | 0.00 | 0.00 | 35 | 1008.9 |
| 20260505164106 | 62 | 270 | 13.9 | 23.5 | 0.00 | 0.00 | 0.00 | 32 | 1008.9 |
| 20260505163107 | 64 | 292 | 9.6 | 8.7 | 0.00 | 0.00 | 0.00 | 21 | 1007.9 |
| 20260505162106 | 66 | 225 | 7.0 | 6.1 | 0.00 | 0.00 | 0.00 | 27 | 1007.9 |
| 20260505161105 | 69 | 315 | 6.1 | 6.1 | 0.00 | 0.00 | 0.00 | 20 | 1007.9 |
| 20260505160106 | 72 | 112 | 0.0 | 0.0 | 0.00 | 0.00 | 0.00 | 18 | 1007.9 |
| 20260505153105 | 75 | 67 | 0.9 | 2.6 | 0.00 | 0.00 | 0.00 | 18 | 1007.9 |
| 20260505152105 | 75 | 67 | 0.0 | 0.0 | 0.00 | 0.00 | 0.00 | 18 | 1007.9 |
| 20260505151106 | 76 | 67 | 0.0 | 0.0 | 0.00 | 0.00 | 0.00 | 18 | 1007.9 |
| 20260505150105 | 77 | 67 | 0.9 | 0.0 | 0.00 | 0.00 | 0.00 | 17 | 1007.9 |
| 20260505140106 | 80 | 90 | 2.6 | 2.6 | 0.00 | 0.00 | 0.00 | 17 | 1007.9 |
| 20260505130106 | 83 | 0 | 4.3 | 2.6 | 0.00 | 0.00 | 0.00 | 15 | 1008.9 |
| 20260505124105 | 82 | 45 | 2.6 | 3.5 | 0.00 | 0.00 | 0.00 | 15 | 1008.9 |
| 20260505123106 | 81 | 45 | 4.3 | 4.3 | 0.00 | 0.00 | 0.00 | 15 | 1008.9 |
| 20260505122106 | 80 | 90 | 2.6 | 2.6 | 0.00 | 0.00 | 0.00 | 17 | 1008.9 |
| 20260505121105 | 79 | 22 | 4.3 | 4.3 | 0.00 | 0.00 | 0.00 | 17 | 1008.9 |
| 20260505120106 | 79 | 22 | 2.6 | 2.6 | 0.00 | 0.00 | 0.00 | 17 | 1008.9 |
| 20260505115104 | 77 | 315 | 2.6 | 5.2 | 0.00 | 0.00 | 0.00 | 17 | 1008.9 |
| 20260505114104 | 78 | 247 | 4.3 | 5.2 | 0.00 | 0.00 | 0.00 | 17 | 1008.9 |
| 20260505113105 | 79 | 22 | 2.6 | 3.5 | 0.00 | 0.00 | 0.00 | 17 | 1009.9 |
| 20260505112105 | 78 | 337 | 4.3 | 6.1 | 0.00 | 0.00 | 0.00 | 17 | 1009.9 |
| 20260505111104 | 78 | 157 | 2.6 | 0.0 | 0.00 | 0.00 | 0.00 | 17 | 1009.9 |
| 20260505110105 | 76 | 247 | 3.5 | 2.6 | 0.00 | 0.00 | 0.00 | 18 | 1009.9 |
| 20260505101024 | 76 | 0 | 2.6 | 2.6 | 0.00 | 0.00 | 0.00 | 18 | 1010.9 |
| 20260505100025 | 74 | 22 | 4.3 | 4.3 | 0.00 | 0.00 | 0.00 | 18 | 1010.9 |
| 20260505095025 | 74 | 157 | 4.3 | 4.3 | 0.00 | 0.00 | 0.00 | 18 | 1010.9 |
| 20260505094024 | 74 | 22 | 2.6 | 2.6 | 0.00 | 0.00 | 0.00 | 18 | 1010.9 |
| 20260505093024 | 74 | 0 | 2.6 | 3.5 | 0.00 | 0.00 | 0.00 | 18 | 1010.9 |